Fort Smith, AR

12:13 PM CDT on July 24, 2017 (GMT -0500)
Fort Smith Regional

Weather History for KFSM - March, 2014

Change the Weather History Date:

Monday, March 3, 2014

  Actual Average Record
Temperature  
Mean Temperature 21 °F 49 °F  
Max Temperature 29 °F 61 °F 81 °F (1976)
Min Temperature 12 °F 38 °F 8 °F (2002)
Degree Days  
Heating Degree Days 44 16  
Month to date heating degree days 85 49  
Since 1 July heating degree days 3030 2722  
Cooling Degree Days 0 0  
Month to date cooling degree days 0 0  
Year to date cooling degree days 0 1  
Moisture  
Dew Point 12 °F    
Average Humidity 73    
Maximum Humidity 88    
Minimum Humidity 58    
Precipitation  
Precipitation 0.01 in 0.11 in 4.66 in (2008)
Month to date precipitation 1.04 0.32  
Year to date precipitation 2.81 5.89  
Sea Level Pressure  
Sea Level Pressure 30.42 in    
Wind  
Wind Speed 6 mph (NW)    
Max Wind Speed 18 mph    
Max Gust Speed 23 mph    
Visibility 9 miles    
Events Snow    
T = Trace of Precipitation, MM = Missing Value Source: NWS Daily Summary

Daily Weather History Graph

Daily Weather History Graph

Search for Another Location

Airport or City:

Trip Planner

Search our weather history database for the weather conditions in past years. The results will help you decide how hot, cold, wet, or windy it might be!

Date:

Astronomy

Mar. 03, 2014 Rise Set
Actual Time 6:44 AM CST 6:14 PM CST
Civil Twilight 6:19 AM CST 6:40 PM CST
Nautical Twilight 5:49 AM CST 7:09 PM CST
Astronomical Twilight 5:20 AM CST 7:39 PM CST
Moon 8:00 AM CST (3/3) 9:10 PM CST (3/3)
Length of Visible Light 12h 21m
Length of Day
11h 30m
Waxing Crescent, 8% of the Moon is Illuminated
Mar 3
Waxing Crescent
Mar 8
First Quarter
Mar 16
Full
Mar 23
Last Quarter
Mar 30
New

Hourly Weather History & Observations

Time (CST) Temp. Windchill Dew Point Humidity Pressure Visibility Wind Dir Wind Speed Gust Speed Precip Events Conditions
12:23 AM 17.6 °F 5.7 °F 12.2 °F 79% 30.33 in 2.0 mi NNW 10.4 mph - 0.00 in Snow Light Snow
12:40 AM 17.6 °F 3.7 °F 10.4 °F 73% 30.34 in 3.0 mi NNW 13.8 mph - 0.00 in Snow Light Snow
12:53 AM 17.1 °F 6.6 °F 10.9 °F 77% 30.36 in 8.0 mi NW 8.1 mph - 0.00 in   Overcast
1:53 AM 15.1 °F 1.8 °F 8.1 °F 74% 30.40 in 10.0 mi NNW 11.5 mph - N/A   Overcast
2:53 AM 14.0 °F -0.8 °F 7.0 °F 74% 30.43 in 9.0 mi NNW 13.8 mph 21.9 mph N/A   Overcast
3:33 AM 12.2 °F -1.0 °F 8.6 °F 85% 30.41 in 1.8 mi North 10.4 mph - 0.00 in Snow Light Snow
3:53 AM 12.9 °F -1.6 °F 7.0 °F 77% 30.43 in 2.0 mi North 12.7 mph - 0.01 in Snow Light Snow
4:05 AM 12.2 °F -1.0 °F 6.8 °F 79% 30.41 in 4.0 mi North 10.4 mph - 0.00 in Snow Light Snow
4:28 AM 12.2 °F -1.8 °F 6.8 °F 79% 30.41 in 7.0 mi North 11.5 mph - 0.00 in   Overcast
4:53 AM 12.9 °F 0.7 °F 5.0 °F 71% 30.43 in 10.0 mi NNW 9.2 mph - 0.00 in   Overcast
5:53 AM 12.9 °F -1.6 °F 3.9 °F 67% 30.46 in 10.0 mi North 12.7 mph - N/A   Overcast
6:53 AM 12.0 °F -1.3 °F 3.0 °F 67% 30.45 in 10.0 mi North 10.4 mph - N/A   Partly Cloudy
7:53 AM 14.0 °F 3.9 °F 5.0 °F 67% 30.45 in 10.0 mi NNE 6.9 mph - N/A   Clear
8:53 AM 17.1 °F 10.0 °F 8.1 °F 68% 30.48 in 10.0 mi NNE 4.6 mph - N/A   Clear
9:53 AM 17.1 °F 8.7 °F 10.0 °F 74% 30.50 in 10.0 mi WSW 5.8 mph - N/A   Mostly Cloudy
10:53 AM 19.0 °F 9.0 °F 10.9 °F 71% 30.52 in 10.0 mi West 8.1 mph - N/A   Overcast
11:38 AM 21.2 °F 12.6 °F 12.2 °F 68% 30.49 in 10.0 mi West 6.9 mph - N/A   Scattered Clouds
11:53 AM 21.9 °F 17.2 °F 12.0 °F 66% 30.51 in 10.0 mi Variable 3.5 mph - N/A   Partly Cloudy
12:53 PM 24.1 °F - 14.0 °F 65% 30.48 in 10.0 mi Calm Calm - N/A   Clear
1:53 PM 24.1 °F 19.7 °F 12.9 °F 62% 30.42 in 10.0 mi Variable 3.5 mph - N/A   Clear
2:53 PM 26.1 °F 18.4 °F 16.0 °F 66% 30.42 in 10.0 mi SW 6.9 mph - N/A   Clear
3:53 PM 27.0 °F - 16.0 °F 63% 30.37 in 10.0 mi Calm Calm - N/A   Clear
4:53 PM 28.0 °F 22.8 °F 15.1 °F 58% 30.40 in 10.0 mi SW 4.6 mph - N/A   Clear
5:53 PM 27.0 °F 23.0 °F 17.1 °F 66% 30.37 in 10.0 mi ESE 3.5 mph - N/A   Clear
6:53 PM 25.0 °F 20.7 °F 19.0 °F 78% 30.37 in 10.0 mi SSE 3.5 mph - N/A   Clear
7:53 PM 24.1 °F - 19.0 °F 81% 30.40 in 10.0 mi Calm Calm - N/A   Clear
8:53 PM 23.0 °F 18.4 °F 19.0 °F 85% 30.40 in 10.0 mi South 3.5 mph - N/A   Clear
9:53 PM 23.0 °F 17.0 °F 18.0 °F 81% 30.41 in 10.0 mi SW 4.6 mph - N/A   Clear
10:23 PM 24.8 °F - 19.4 °F 80% 30.38 in 10.0 mi Calm Calm - N/A   Mostly Cloudy
10:44 PM 23.0 °F - 19.4 °F 86% 30.37 in 10.0 mi Calm Calm - N/A   Scattered Clouds
10:53 PM 21.9 °F - 18.0 °F 85% 30.38 in 10.0 mi Calm Calm - N/A   Partly Cloudy
11:53 PM 23.0 °F - 19.0 °F 85% 30.34 in 10.0 mi Calm Calm - N/A   Clear